Weather in Stepnoe Matyunino

Russia / Ulyanovsk Oblast     53°57′49″N   47°49′53″E
temp.,
°C
wind,
m/s
gust,
m/s
humid.,
%
clouds,
%
prec.,
mm/h
press.,
hPa
HPBL,
m
21 june, mon
mon2101:00+19nw12880 0.0 102211
04:00+18wnw11880 0.0 102211
07:00+22w11790 0.0 1022109
10:00+26wsw22664 0.0 1022695
13:00+28wsw22514 0.0 10221749
16:00+29wnw22472 0.0 10211642
19:00+27nw226370 0.0 102162
22:00+22n227693 0.0 102212
22 june, tue
tue2201:00+20nnw118132 0.0 102211
04:00+19nw118424 0.0 102211
07:00+23nw11755 0.0 1023104
10:00+27nw115916 0.0 1023697
13:00+29wsw22485 0.0 10231746
16:00+30w224422 0.0 10221731
19:00+28wnw126054 0.0 102175
22:00+23n22640 0.0 102111
23 june, wed
wed2301:00+21n11753 0.2 102211
04:00+20wnw11790 0.3 102211
07:00+23n23750 0.0 1022118
10:00+27nnw22590 0.0 1021822
13:00+30wnw34475 0.0 10212195
16:00+30nnw33428 0.0 10202131
19:00+28wnw35640 0.0 1019203
22:00+22ne36753 0.0 1020123
24 june, thu
thu2401:00+20wnw22770 0.1 102012
04:00+20wnw22850 0.0 102031
07:00+23nw24770 0.0 1020166
10:00+27wnw33620 0.0 1019749
13:00+28nw335314 3.1 10191411
16:00+29nnw465453 3.1 10181737
19:00+28ene24663 0.2 1017283
22:00+20nw3590100 2.3 101885
25 june, fri
fri2501:00+20nw228164 0.0 101715
04:00+19nw228714 0.1 101813
07:00+22w128357 0.0 1017103
10:00+27wnw346666 0.0 1016585
13:00+30nnw345388 0.1 10161402
16:00+30nw455390 0.1 10151649
19:00+27wnw477474 0.5 1014252
22:00+20se4893100 7.3 1015170